Clintonville, WI

5:41 PM CDT on April 25, 2017 (GMT -0500)
Clintonville Municipal

Weather History for KCLI - October, 2012

Change the Weather History Date:

Tuesday, October 30, 2012

  Actual Average Record
Temperature  
Mean Temperature 38 °F -  
Max Temperature 44 °F 52 °F 72 °F (1953)
Min Temperature 33 °F 31 °F 16 °F (1988)
Degree Days  
Heating Degree Days 26    
Moisture  
Dew Point 24 °F    
Average Humidity 60    
Maximum Humidity 81    
Minimum Humidity 37    
Precipitation  
Precipitation 0.00 in - - ()
Sea Level Pressure  
Sea Level Pressure 29.99 in    
Wind  
Wind Speed 11 mph (North)    
Max Wind Speed 21 mph    
Max Gust Speed 30 mph    
Visibility 10 miles    
Events      
Averages and records for this station are not official NWS values.
T = Trace of Precipitation, MM = Missing Value Source: NWS Daily Summary

Daily Weather History Graph

Daily Weather History Graph

Search for Another Location

Airport or City:

Trip Planner

Search our weather history database for the weather conditions in past years. The results will help you decide how hot, cold, wet, or windy it might be!

Date:

Astronomy

Oct. 30, 2012 Rise Set
Actual Time 7:30 AM CDT 5:45 PM CDT
Civil Twilight 7:00 AM CDT 6:16 PM CDT
Nautical Twilight 6:25 AM CDT 6:50 PM CDT
Astronomical Twilight 5:52 AM CDT 7:24 PM CDT
Moon 6:11 PM CDT (10/30) 8:20 AM CDT (10/30)
Length of Visible Light 11h 15m
Length of Day
10h 15m
Full, 99% of the Moon is Illuminated
Oct 30
Full
Nov 6
Last Quarter
Nov 13
New
Nov 20
First Quarter
Nov 28
Full

Hourly Weather History & Observations

Time (CDT) Temp. Windchill Dew Point Humidity Pressure Visibility Wind Dir Wind Speed Gust Speed Precip Events Conditions
12:15 AM 35.6 °F 29.9 °F 28.4 °F 75% 30.18 in 10.0 mi North 6.9 mph - N/A   Clear
12:35 AM 35.6 °F 29.2 °F 28.4 °F 75% 30.16 in 10.0 mi North 8.1 mph - N/A   Clear
12:55 AM 35.6 °F 29.2 °F 28.4 °F 75% 30.16 in 10.0 mi North 8.1 mph - N/A   Clear
1:15 AM 35.6 °F 29.2 °F 28.4 °F 75% 30.15 in 10.0 mi North 8.1 mph - N/A   Clear
1:55 AM 35.6 °F 29.2 °F 30.2 °F 81% 30.15 in 10.0 mi North 8.1 mph - N/A   Clear
2:15 AM 35.6 °F 29.2 °F 30.2 °F 81% 30.14 in 10.0 mi North 8.1 mph - N/A   Clear
2:35 AM 35.6 °F 29.9 °F 30.2 °F 81% 30.13 in 10.0 mi NNW 6.9 mph - N/A   Clear
2:55 AM 35.6 °F 29.9 °F 28.4 °F 75% 30.12 in 10.0 mi NNW 6.9 mph - N/A   Clear
3:15 AM 35.6 °F 29.2 °F 28.4 °F 75% 30.11 in 10.0 mi NNW 8.1 mph - N/A   Clear
3:35 AM 35.6 °F 27.5 °F 28.4 °F 75% 30.11 in 10.0 mi NNW 11.5 mph - N/A   Clear
3:55 AM 35.6 °F 28.0 °F 30.2 °F 81% 30.10 in 10.0 mi NNW 10.4 mph - N/A   Clear
4:15 AM 35.6 °F 28.0 °F 30.2 °F 81% 30.09 in 10.0 mi NNW 10.4 mph 17.3 mph N/A   Clear
4:35 AM 35.6 °F 28.0 °F 30.2 °F 81% 30.09 in 10.0 mi NNW 10.4 mph - N/A   Clear
4:55 AM 35.6 °F 28.6 °F 30.2 °F 81% 30.09 in 10.0 mi NNW 9.2 mph - N/A   Clear
5:15 AM 35.6 °F 29.2 °F 30.2 °F 81% 30.08 in 10.0 mi North 8.1 mph - N/A   Clear
5:35 AM 35.6 °F 27.5 °F 30.2 °F 81% 30.08 in 10.0 mi North 11.5 mph 16.1 mph N/A   Clear
6:15 AM 35.6 °F 27.5 °F 28.4 °F 75% 30.07 in 10.0 mi North 11.5 mph 17.3 mph N/A   Clear
6:35 AM 35.6 °F 27.5 °F 28.4 °F 75% 30.06 in 10.0 mi North 11.5 mph 16.1 mph N/A   Clear
6:55 AM 35.6 °F 28.0 °F 28.4 °F 75% 30.05 in 10.0 mi North 10.4 mph 19.6 mph N/A   Clear
7:15 AM 35.6 °F 26.6 °F 26.6 °F 70% 30.04 in 10.0 mi North 13.8 mph 19.6 mph N/A   Clear
7:35 AM 35.6 °F 27.5 °F 26.6 °F 70% 30.04 in 10.0 mi North 11.5 mph 17.3 mph N/A   Clear
7:55 AM 35.6 °F 27.1 °F 26.6 °F 70% 30.04 in 10.0 mi North 12.7 mph 16.1 mph N/A   Clear
8:35 AM 35.6 °F 27.1 °F 23.0 °F 60% 30.03 in 10.0 mi North 12.7 mph 18.4 mph N/A   Clear
8:55 AM 35.6 °F 26.6 °F 23.0 °F 60% 30.03 in 10.0 mi North 13.8 mph 24.2 mph N/A   Clear
9:15 AM 35.6 °F 26.6 °F 23.0 °F 60% 30.02 in 10.0 mi North 13.8 mph 23.0 mph N/A   Clear
9:35 AM 37.4 °F 28.2 °F 23.0 °F 56% 30.01 in 10.0 mi North 16.1 mph 21.9 mph N/A   Clear
9:55 AM 37.4 °F 27.5 °F 23.0 °F 56% 30.00 in 10.0 mi North 18.4 mph 27.6 mph N/A   Clear
10:15 AM 37.4 °F 28.2 °F 23.0 °F 56% 30.00 in 10.0 mi North 16.1 mph 25.3 mph N/A   Clear
10:35 AM 39.2 °F 30.5 °F 23.0 °F 52% 29.99 in 10.0 mi North 16.1 mph 23.0 mph N/A   Clear
11:15 AM 39.2 °F 30.2 °F 23.0 °F 52% 29.98 in 10.0 mi North 17.3 mph 29.9 mph N/A   Clear
11:35 AM 39.2 °F 31.6 °F 23.0 °F 52% 29.98 in 10.0 mi North 12.7 mph 25.3 mph N/A   Clear
11:55 AM 41.0 °F 33.9 °F 23.0 °F 49% 29.96 in 10.0 mi North 12.7 mph 23.0 mph N/A   Clear
12:15 PM 41.0 °F 32.5 °F 23.0 °F 49% 29.95 in 10.0 mi North 17.3 mph 26.5 mph N/A   Clear
12:35 PM 42.8 °F 34.8 °F 23.0 °F 46% 29.94 in 10.0 mi North 17.3 mph 27.6 mph N/A   Clear
12:55 PM 42.8 °F 35.8 °F 21.2 °F 42% 29.93 in 10.0 mi North 13.8 mph 28.8 mph N/A   Clear
1:15 PM 42.8 °F 34.0 °F 21.2 °F 42% 29.92 in 10.0 mi North 20.7 mph 26.5 mph N/A   Clear
1:35 PM 42.8 °F 34.8 °F 21.2 °F 42% 29.91 in 10.0 mi North 17.3 mph 26.5 mph N/A   Clear
1:55 PM 44.6 °F 38.1 °F 21.2 °F 39% 29.91 in 10.0 mi North 13.8 mph 27.6 mph N/A   Clear
2:15 PM 44.6 °F 36.9 °F 21.2 °F 39% 29.90 in 10.0 mi North 18.4 mph 25.3 mph N/A   Clear
2:35 PM 44.6 °F 37.8 °F 21.2 °F 39% 29.90 in 10.0 mi North 15.0 mph 27.6 mph N/A   Clear
2:55 PM 44.6 °F 37.8 °F 19.4 °F 37% 29.89 in 10.0 mi NNW 15.0 mph 24.2 mph N/A   Clear
3:15 PM 42.8 °F 34.5 °F 21.2 °F 42% 29.89 in 10.0 mi North 18.4 mph 26.5 mph N/A   Clear
3:35 PM 42.8 °F 35.4 °F 21.2 °F 42% 29.89 in 10.0 mi North 15.0 mph 24.2 mph N/A   Clear
3:55 PM 42.8 °F 35.1 °F 21.2 °F 42% 29.89 in 10.0 mi North 16.1 mph 26.5 mph N/A   Clear
4:15 PM 42.8 °F 35.8 °F 19.4 °F 39% 29.89 in 10.0 mi North 13.8 mph 24.2 mph N/A   Clear
4:35 PM 42.8 °F 34.5 °F 19.4 °F 39% 29.90 in 10.0 mi North 18.4 mph 25.3 mph N/A   Clear
4:55 PM 42.8 °F 36.2 °F 19.4 °F 39% 29.90 in 10.0 mi North 12.7 mph 25.3 mph N/A   Clear
5:15 PM 41.0 °F 34.3 °F 19.4 °F 42% 29.90 in 10.0 mi North 11.5 mph 19.6 mph N/A   Clear
5:35 PM 41.0 °F 35.8 °F 19.4 °F 42% 29.90 in 10.0 mi North 8.1 mph - N/A   Clear
6:15 PM 39.2 °F 32.5 °F 19.4 °F 45% 29.91 in 10.0 mi North 10.4 mph 17.3 mph N/A   Clear
6:35 PM 37.4 °F 29.8 °F 21.2 °F 52% 29.91 in 10.0 mi North 11.5 mph 16.1 mph N/A   Clear
6:55 PM 37.4 °F 29.3 °F 21.2 °F 52% 29.91 in 10.0 mi North 12.7 mph 19.6 mph N/A   Clear
7:15 PM 37.4 °F 27.8 °F 21.2 °F 52% 29.92 in 10.0 mi North 17.3 mph 24.2 mph N/A   Clear
7:35 PM 37.4 °F 28.5 °F 23.0 °F 56% 29.92 in 10.0 mi North 15.0 mph 23.0 mph N/A   Clear
7:55 PM 35.6 °F 26.2 °F 23.0 °F 60% 29.92 in 10.0 mi North 15.0 mph 21.9 mph N/A   Clear
8:15 PM 35.6 °F 26.6 °F 23.0 °F 60% 29.92 in 10.0 mi North 13.8 mph 21.9 mph N/A   Clear
8:35 PM 35.6 °F 29.2 °F 23.0 °F 60% 29.92 in 10.0 mi North 8.1 mph 20.7 mph N/A   Clear
8:55 PM 33.8 °F 25.8 °F 23.0 °F 65% 29.92 in 10.0 mi North 10.4 mph 17.3 mph N/A   Clear
9:15 PM 33.8 °F 25.8 °F 23.0 °F 65% 29.91 in 10.0 mi North 10.4 mph 20.7 mph N/A   Clear
9:35 PM 33.8 °F 26.4 °F 23.0 °F 65% 29.91 in 10.0 mi North 9.2 mph - N/A   Clear
9:55 PM 33.8 °F 26.4 °F 23.0 °F 65% 29.90 in 10.0 mi NNW 9.2 mph - N/A   Clear
10:15 PM 33.8 °F 24.8 °F 23.0 °F 65% 29.89 in 10.0 mi North 12.7 mph 17.3 mph N/A   Clear
10:35 PM 33.8 °F 24.3 °F 23.0 °F 65% 29.89 in 10.0 mi NNW 13.8 mph - N/A   Clear
11:15 PM 33.8 °F 27.0 °F 23.0 °F 65% 29.88 in 10.0 mi North 8.1 mph 17.3 mph N/A   Clear
11:35 PM 33.8 °F 26.4 °F 23.0 °F 65% 29.87 in 10.0 mi North 9.2 mph - N/A   Clear
11:55 PM 33.8 °F 27.0 °F 23.0 °F 65% 29.87 in 10.0 mi North 8.1 mph 16.1 mph N/A   Clear